Location: Zagreb
(45.8000°N, 16.0000°E)
Time: 08:54:23
(UTC+02:00)

Courier 1B - Pass Details

Date: 15 August 2020
Orbit: 962 x 1209 km, 28.3° (Epoch: 27 September)

Event Time Altitude Azimuth Distance (km) Brightness Sun altitude
Rises 16:29:20 0° 205° (SSW) 4,092 11.3 35.8°
Reaches altitude 10° 16:35:12 10° 171° (S) 3,100 10.3 34.9°
Maximum altitude 16:36:53 11° 158° (SSE) 3,028 10.1 34.6°
Drops below altitude 10° 16:38:33 10° 145° (SE) 3,075 10.0 34.3°
Sets 16:44:14 0° 112° (ESE) 3,979 10.3 33.3°
